User: anonymous   Login
Location: Keeble Observatory
(37.7625°N, 77.4755°W)
Time: 02:20:49
(UTC-04:00)
Language:

Cosmos 1484 Rocket - Orbit

View from above orbital plane
View from above orbital plane
View from above satellite
View from above satellite

Ground track
Ground track

The orbit data is extracted from the following two-line orbital elements,

1 14208U 83075B   15115.50940800  .00003582  00000-0  22816-3 0  9997
2 14208 097.3887 146.0122 0039744 312.7709 047.0179 15.08732412729268
Epoch (UTC): 25 April 2015 12:13:32
Eccentricity: 0.0039744
inclination: 97.3887°
perigee height: 512 km
apogee height: 567 km
right ascension of ascending node: 146.0122°
argument of perigee: 312.7709°
revolutions per day: 15.08732412
mean anomaly at epoch: 47.0179°
orbit number at epoch: 72926

The dashed part of the orbit path shows where the satellite is in the earth's shadow,  

DLR